星链-30361 (STARLINK-30361 )

导读

STARLINK-30361是美国太空探索技术公司星链互联网卫星星座的一员,由美国于2023年9月1日发射升空,星链项目旨在为全球提供高速低延迟互联网接入服务。该卫星运行在近地轨道,依靠大型星座组网实现全球覆盖,进一步扩充了星链星座的服务能力。

Basic Information
目录编号:
57743
目录名称:
STARLINK-30361
国际标识:
2023-131M
轨道中心:
EARTH
卫星名称:
星链-30361
卫星全名:
星链-30361 (STARLINK-30361 )
卫星状态:
在轨 (已飞行1099 天)
发射日期:
2023-09-01 UTC
国别 :
美国 (US)
星等 :
--
Orbit Information
数据来源 国际轨道数据
星历时间: 2026-09-02T15:59:07+0800
1天前
查看轨道信息
半长轴: 6861.194km
偏心率: 0.0001144
轨道倾角: 42.999°
近地点辐角 273.733°
升交点赤经 254.704°
平近点角 86.339°
近地点: 482.272km
远地点: 483.842km
周期: 94.267分钟
每日圈数: 15.275776
Detailed Information
固有亮度:
5
最大亮度:
0.3
卫星平台:
Starlink v2.0 mini
覆盖范围:
全球
运营商:
太空探索技术公司
运营商所在国:
美国
制造商(研发单位):
太空探索技术公司
制造商所在国:
美国
使用方式:
暂无
Satellite Introduction
星链(Starlink)计划是由太空探索技术公司(SpaceX)提出的一个巨型低轨卫星互联网星座项目,计划在2019年至2024年间在太空搭建由约1.2万颗卫星组成的“星链”网络,其中1584颗将部署在地球上空550千米处的近地轨道,并从2020年开始工作。该卫星仍在工作。
2D Orbit Map
3D Orbit Map
Orbit Altitude Analysis Chart
Orbit Inclination Analysis Chart
Orbit Comprehensive Analysis Chart
View Comprehensive Chart
Conjunction Data List
Event ID Objects TCA Miss Dist (km) Collision Risk Probability Collision Risk Index (CRI) Action
CDM_260905-020705-774306-386121
2026-09-05T
02:07:12+0000
0.147 km
中距离
8.4716E-4 高风险 0.94
CDM_260827-182205-774306-356521
2026-08-27T
18:22:47+0000
0.537 km
远距离
1.180812E-4 高风险 0.76
CDM_260905-095402-636605-774321
SIMSAT 2 (26366)
2026-09-05T
09:54:11+0000
0.691 km
远距离
8.326279E-5 中风险 0.73
CDM_260903-093905-774306-356521
2026-09-03T
09:39:39+0000
1.055 km
极远距离
1.445514E-5 中风险 0.58
CDM_260905-034105-774306-386121
2026-09-05T
03:41:21+0000
1.580 km
极远距离
3.646057E-6 低风险 0.46
CDM_260903-111305-774306-356521
2026-09-03T
11:13:49+0000
1.836 km
极远距离
2.405769E-6 低风险 0.43
CDM_260903-080505-774306-356522
2026-09-03T
08:05:30+0000
2.953 km
极远距离
9.554946E-7 极低风险 0.35